Total_Precipitation_Accumulation
2.04 2.08 3.00 2.89 2.66 2.58 2.46 2.43 2.40 2.36 2.30 2.12 1.93 1.83 1.82 1.75 1.60 1.54 1.46 1.43 1.53 1.71 1.77 1.88 1.92 1.87 1.93 1.91 1.85 1.73 1.71 1.80 1.70 1.49 1.44 1.49 1.57 1.83 1.93 1.98 1.98 1.97 2.17
1.63 2.04 3.01 2.89 2.71 2.53 2.42 2.47 2.39 2.21 2.03 1.81 1.73 1.72 1.73 1.64 1.54 1.40 1.35 1.42 1.51 1.61 1.65 1.78 1.84 1.84 1.83 1.85 1.87 1.86 1.85 1.75 1.64 1.51 1.64 1.72 1.86 1.97 1.93 1.93 2.11 2.16 2.14
1.46 1.72 2.31 2.93 2.76 2.52 2.44 2.48 2.42 2.17 1.83 1.58 1.54 1.56 1.50 1.43 1.42 1.38 1.40 1.39 1.42 1.43 1.44 1.62 1.90 1.93 1.86 1.82 1.82 1.84 1.86 1.74 1.69 1.80 2.24 2.66 2.32 2.12 1.87 1.91 2.02 1.94 1.92
1.31 1.49 1.80 2.63 2.59 2.52 2.48 2.28 2.24 1.99 1.65 1.49 1.46 1.42 1.34 1.33 1.38 1.48 1.49 1.47 1.50 1.41 1.30 1.37 1.75 1.91 1.87 1.79 1.63 1.65 1.78 1.81 1.91 2.14 2.53 3.02 2.82 2.45 2.19 2.01 1.97 1.89 1.87
1.30 1.53 2.17 2.71 2.48 2.40 2.27 2.07 2.07 1.95 1.69 1.57 1.51 1.43 1.40 1.39 1.36 1.47 1.51 1.53 1.58 1.47 1.41 1.52 1.92 1.86 1.81 1.74 1.60 1.60 1.77 1.96 2.14 2.04 2.32 2.74 3.08 2.93 2.39 2.14 2.07 2.04 2.08
1.33 1.53 2.13 2.43 2.17 2.05 1.99 1.93 1.85 1.90 1.88 1.66 1.50 1.47 1.49 1.48 1.53 1.60 1.63 1.56 1.63 1.59 1.62 1.75 1.96 1.94 1.85 1.80 1.74 1.66 1.80 2.03 1.90 1.88 2.30 2.67 2.89 2.77 2.28 2.10 2.16 2.26 2.34
1.16 1.27 1.70 2.12 1.93 1.83 1.82 1.82 1.74 1.82 1.91 1.78 1.51 1.58 1.61 1.58 1.65 1.75 1.75 1.66 1.70 1.71 1.77 1.95 1.98 2.03 1.95 1.83 1.88 1.84 1.85 1.83 1.60 1.85 2.29 2.66 2.64 2.47 2.26 2.07 2.08 2.36 2.61
1.20 1.15 1.32 1.72 1.78 1.66 1.69 1.84 1.74 1.74 1.83 1.76 1.63 1.63 1.55 1.59 1.71 1.81 1.81 1.70 1.64 1.71 1.83 2.03 2.02 2.02 1.91 1.88 1.94 2.03 2.03 1.73 1.34 1.46 1.76 2.43 2.90 2.68 2.25 1.98 2.03 2.23 2.51
1.48 1.35 1.21 1.23 1.39 1.51 1.62 1.76 1.72 1.68 1.68 1.61 1.67 1.69 1.74 1.79 1.77 1.70 1.71 1.66 1.66 1.74 1.77 1.87 1.92 1.92 1.88 1.89 1.88 1.99 2.08 1.92 1.55 1.48 1.48 2.24 2.88 2.78 2.24 1.95 1.91 2.13 2.28
1.56 1.43 1.21 1.09 1.10 1.23 1.26 1.48 1.69 1.75 1.70 1.58 1.63 1.74 1.84 1.84 1.76 1.70 1.60 1.70 1.80 1.80 1.88 1.87 1.82 1.83 1.87 1.81 1.81 2.00 2.07 1.81 1.45 1.38 1.64 2.24 2.98 3.01 2.59 2.01 1.79 1.83 1.92
1.30 1.22 1.14 1.10 1.13 1.23 1.26 1.31 1.61 1.69 1.62 1.44 1.41 1.61 1.64 1.49 1.53 1.68 1.74 2.03 2.00 2.01 2.04 1.95 1.87 1.84 1.70 1.69 1.84 1.98 1.86 1.53 1.46 1.51 1.90 2.58 3.02 3.02 2.76 2.28 1.86 1.67 1.65
1.02 0.92 0.90 0.92 1.00 1.13 1.17 1.53 1.78 1.60 1.53 1.29 1.31 1.29 1.37 1.42 1.62 1.58 1.74 2.10 2.04 2.02 1.97 1.97 1.89 1.67 1.33 1.17 1.46 1.58 1.42 1.47 1.51 1.48 1.98 2.71 3.03 3.00 2.69 2.36 1.98 1.77 1.69
0.79 0.72 0.67 0.63 0.65 0.74 0.97 1.32 1.62 1.77 1.77 1.75 1.55 1.34 1.37 1.18 1.13 1.13 1.21 1.38 1.44 1.51 1.46 1.53 1.52 1.26 1.13 1.12 1.16 1.22 1.40 1.38 1.60 1.61 2.06 2.71 2.99 3.05 2.78 2.45 2.12 1.90 1.82
0.76 0.72 0.63 0.58 0.54 0.58 0.64 0.83 1.09 1.27 1.38 1.45 1.35 1.17 1.24 1.13 1.05 1.06 1.07 1.07 1.07 1.17 1.31 1.31 1.31 1.20 1.09 1.03 1.02 1.15 1.26 1.27 1.47 1.77 2.19 2.44 2.78 3.07 2.96 2.60 2.32 2.10 2.04
0.85 0.86 0.76 0.63 0.57 0.58 0.63 0.69 0.79 0.98 1.12 1.13 1.18 1.10 1.10 1.15 1.15 1.11 1.01 1.01 0.93 1.03 1.18 1.28 1.25 1.17 1.19 1.17 1.08 1.20 1.29 1.39 1.46 1.56 1.81 2.10 2.42 2.90 3.24 3.13 2.77 2.43 2.30
0.91 0.90 0.88 0.76 0.72 0.69 0.66 0.69 0.77 0.87 0.93 0.91 0.90 0.91 1.02 1.12 1.12 1.11 1.08 1.10 1.07 1.10 1.23 1.25 1.16 1.22 1.31 1.25 1.11 1.15 1.26 1.33 1.41 1.43 1.55 1.81 2.09 2.38 3.02 3.35 3.18 2.93 2.86
0.89 0.85 0.87 0.86 0.87 0.84 0.79 0.74 0.75 0.85 0.92 0.91 0.86 0.78 0.82 0.94 0.98 1.03 1.06 1.05 1.10 1.21 1.28 1.34 1.17 1.21 1.22 1.17 1.18 1.18 1.16 1.21 1.24 1.28 1.29 1.40 1.58 1.87 2.45 3.00 3.26 3.29 3.35
0.76 0.75 0.82 0.82 0.85 0.88 0.89 0.89 0.91 0.92 1.00 0.95 0.92 0.81 0.77 0.84 0.93 1.07 1.09 1.05 1.07 1.23 1.36 1.44 1.36 1.36 1.34 1.30 1.29 1.27 1.19 1.24 1.16 1.17 1.21 1.24 1.45 1.45 1.84 2.32 2.67 2.92 3.27
0.70 0.70 0.71 0.76 0.76 0.82 0.88 0.91 1.02 1.05 1.08 1.02 1.01 0.90 0.86 0.93 1.04 1.22 1.31 1.29 1.26 1.30 1.34 1.34 1.44 1.49 1.47 1.46 1.36 1.34 1.31 1.24 1.27 1.16 1.19 1.30 1.31 1.40 1.64 1.87 2.07 2.22 2.65
0.68 0.66 0.65 0.70 0.72 0.74 0.85 0.96 1.14 1.25 1.23 1.24 1.15 1.06 1.06 1.21 1.37 1.53 1.51 1.59 1.63 1.55 1.56 1.52 1.57 1.54 1.47 1.54 1.42 1.30 1.28 1.21 1.33 1.39 1.33 1.39 1.39 1.39 1.76 1.97 1.92 1.77 2.12
0.62 0.64 0.63 0.60 0.69 0.72 0.76 0.90 1.13 1.41 1.52 1.62 1.54 1.34 1.27 1.39 1.67 1.91 1.87 1.95 2.02 1.94 1.91 1.91 2.14 2.07 1.78 1.60 1.71 1.56 1.40 1.27 1.44 1.51 1.45 1.55 1.64 1.77 2.00 2.02 1.83 1.64 1.55
0.49 0.55 0.58 0.57 0.64 0.70 0.74 0.91 1.09 1.25 1.25 1.41 1.53 1.49 1.42 1.41 1.56 1.71 2.00 2.13 2.11 2.21 2.33 2.32 2.69 2.81 2.31 1.87 1.98 2.24 1.99 1.78 1.60 1.48 1.53 1.59 1.72 1.95 2.07 1.96 1.76 1.55 1.41
0.40 0.39 0.42 0.47 0.54 0.66 0.80 1.02 1.24 1.45 1.52 1.56 1.47 1.55 1.57 1.48 1.52 1.65 1.81 1.96 1.99 2.13 2.31 2.43 2.75 3.30 3.04 2.38 2.20 2.62 2.40 2.18 2.06 1.75 1.58 1.58 1.65 1.92 2.21 2.14 1.90 1.67 1.48
0.37 0.34 0.36 0.46 0.60 0.80 0.99 1.22 1.47 1.68 1.72 1.59 1.59 1.62 1.51 1.43 1.40 1.52 1.65 1.77 1.89 1.94 2.11 2.21 2.35 2.93 3.33 2.99 2.70 2.39 2.07 2.03 2.22 2.22 1.86 1.66 1.65 1.79 2.00 2.00 1.88 1.83 1.68
0.42 0.42 0.47 0.66 0.88 1.14 1.35 1.61 1.90 1.88 1.76 1.64 1.61 1.60 1.54 1.53 1.49 1.49 1.64 1.72 1.73 1.81 1.94 2.27 2.55 2.85 3.09 3.11 3.09 2.87 2.57 2.30 1.97 2.24 2.30 1.95 1.82 1.79 1.84 1.90 1.80 1.79 1.78
0.71 0.85 1.03 1.28 1.44 1.53 1.65 1.82 1.93 1.88 1.87 1.80 1.62 1.54 1.54 1.58 1.63 1.64 1.69 1.72 1.70 1.74 1.86 2.10 2.41 2.64 2.97 3.21 3.16 2.96 2.82 2.69 2.44 2.37 2.24 2.08 2.10 1.96 1.84 1.81 1.67 1.66 1.79